{"data":{"norad_id":66917,"epoch":"2026-05-24T22:17:26.791584Z","epoch_age_seconds":88863,"freshness":"FRESH","line1":"1 66917U 25285C   26144.92878231 -.00000107  00000+0  36938-4 0  9999","line2":"2 66917  50.0024 229.4559 0001060 212.1750 147.9057 13.29325460 22960","mean_motion":13.2932546,"eccentricity":0.000106,"inclination_deg":50.0024,"raan_deg":229.4559,"arg_perigee_deg":212.175,"mean_anomaly_deg":147.9057,"bstar":3.6938e-5,"rev_number":2296,"period_min":108.3256165123,"perigee_km":1148.5107011564,"apogee_km":1150.1065196258,"semimajor_km":7527.4456103911,"source":"CELESTRAK","updated_at":"2026-05-25T13:38:06.593828Z"}}